weather.gov     
National Weather Service

Terminal Aerodrome Forecast
NWS Homepage
This page is being discontinued on March 12, 2014.
The same data is available at this site. Please update your bookmarks.
Thank you, and we apologize for the inconvenience.
Please send an email to SR-SRH.Webmaster@noaa.gov with any concerns.


Current Version
Previous Version:    01  02  03  04  05  06  07  08  09  10  11  12  13  14  15  16  17  18  19  20  21  22  23  24  25  26  27  28  29  30  
   31  32  33  34  35  36  37  38  39  40  41  
[Printable]
950
FTUS44 KMAF 212300
TAFMAF
TAF
KMAF 212335Z 2200/2224 15009KT P6SM SCT200
     FM220300 14007KT 5SM BR OVC004
     FM220500 15005KT 1SM BR OVC002 PROB30 2209/2213 5SM -TSRA
      OVC007CB
     FM221500 18005KT 5SM BR OVC010 PROB30 2215/2217 -TSRA OVC010CB
     FM221900 21008KT P6SM FEW030 BKN050=


U.S. Dept. of Commerce
NOAA National Weather Service
1325 East West Highway
Silver Spring, MD 20910
E-mail: w-nws.webmaster@noaa.gov
Page last modified: May 16, 2007
NATIONAL WEATHER SERVICE: for Safety, for Work, for Fun - FOR LIFE